Weather in Sochi

Russia / Krasnodar Krai     43°35′07″N   39°43′23″E
temp.,
°C
wind,
m/s
gust,
m/s
humid.,
%
clouds,
%
prec.,
mm/h
press.,
hPa
HPBL,
m
27 october, wed
wed2700:00+11nne22630 0.0 1027308
03:00+12nne32590 0.0 1026262
06:00+12nne33550 0.0 1025229
09:00+13n22490 0.0 1025235
12:00+14wnw32510 0.0 1025303
15:00+15wnw55520 0.0 1023417
18:00+15nw55570 0.0 1023522
21:00+14nnw33580 0.0 1023400
28 october, thu
thu2800:00+14n22600 0.0 1024363
03:00+13ne22610 0.0 1024263
06:00+13ne32550 0.0 1024238
09:00+13ene32522 0.0 1025261
12:00+14sw11552 0.0 1024363
15:00+14wnw336412 0.0 1023700
18:00+14wnw22627 0.0 1023835
21:00+14nnw126264 0.0 1024620
29 october, fri
fri2900:00+14ene116271 0.0 1023479
03:00+14ne116097 0.0 1023439
06:00+12ne326596 0.0 1023274
09:00+13nne326186 0.0 1024276
12:00+14nnw22576 0.0 1023356
15:00+14wnw22586 0.0 1023481
18:00+14nnw115946 0.0 1024554
21:00+14e226216 0.0 1024478
30 october, sat
sat3000:00+14e336798 0.0 1024455
03:00+14ene326697 0.0 1024333
06:00+14nne2263100 0.0 1025237
09:00+14nne226092 0.0 1025215
12:00+17nw235294 0.0 1024387
15:00+16wsw22535 0.0 1024460
18:00+16nw22553 0.0 1024437
21:00+16n33622 0.0 1024211
31 october, sun
sun3100:00+15nne33600 0.0 1023136
03:00+16n2257100 0.0 1022129
06:00+16nne115480 0.0 1021124
09:00+16e1152100 0.0 1021126
12:00+17wsw115140 0.0 1020127
15:00+17nw115498 0.0 1019131
18:00+17ne2257100 0.0 1020115
21:00+18se366383 0.0 1019277